* Astronomy

Members Login
Username 
 
Password 
    Remember Me  
Post Info TOPIC: Asteroid 2012 KJ11


L

Posts: 131433
Date:
Asteroid 2012 KJ11
Permalink  
 


Orbital elements:
2012 KJ11                                                Earth MOID = 0.2442 AU
Epoch 2012 Mar. 14.0 TT = JDT 2456000.5                 MPC
M 241.32143              (2000.0)            P               Q
n   0.53299015     Peri.  307.53709     +0.35733416     +0.91334189
a   1.5065721      Node   340.38293     -0.56174902     +0.04316904
e   0.5895281      Incl.   35.55870     -0.74615705     +0.40489879
P   1.85           H   16.9           G   0.15           U   9

MPEC 2012 - K30



__________________
Page 1 of 1  sorted by
 
Quick Reply

Please log in to post quick replies.



Create your own FREE Forum
Report Abuse
Powered by ActiveBoard